| time (UTC) | temp C | wind direction | speed KPH | gust KPH | rain 1hr cm | rain 24hr cm | rain mn cm | humidity % | barometer mb |
| 20260504035535 | 4 | 299 | 0.0 | 0.0 | 0.00 | 0.00 | 0.00 | 63 | 1018.1 |
| 20260504035013 | 4 | 299 | 0.0 | 0.0 | 0.00 | 0.00 | 0.00 | 61 | 1017.9 |
| 20260504034558 | 4 | 299 | 0.0 | 0.0 | 0.00 | 0.00 | 0.00 | 61 | 1018.0 |
| 20260504034102 | 4 | 299 | 0.0 | 0.0 | 0.00 | 0.00 | 0.00 | 61 | 1017.9 |
| 20260504033603 | 4 | 299 | 0.0 | 0.0 | 0.00 | 0.00 | 0.00 | 60 | 1017.8 |
| 20260504033037 | 4 | 299 | 0.0 | 0.0 | 0.00 | 0.00 | 0.00 | 60 | 1018.1 |
| 20260504032516 | 4 | 299 | 0.0 | 0.0 | 0.00 | 0.00 | 0.00 | 60 | 1018.2 |
| 20260504032031 | 4 | 299 | 0.0 | 0.0 | 0.00 | 0.00 | 0.00 | 60 | 1018.1 |
| 20260504031559 | 4 | 299 | 0.0 | 0.0 | 0.00 | 0.00 | 0.00 | 60 | 1018.2 |
| 20260504030552 | 5 | 299 | 0.0 | 3.2 | 0.00 | 0.00 | 0.00 | 58 | 1018.1 |
| 20260504030003 | 5 | 299 | 0.0 | 0.0 | 0.00 | 0.00 | 0.00 | 58 | 1018.1 |
| 20260504025505 | 5 | 299 | 0.0 | 1.6 | 0.00 | 0.00 | 0.00 | 57 | 1018.2 |
| 20260504025110 | 5 | 299 | 0.0 | 1.6 | 0.00 | 0.00 | 0.00 | 57 | 1018.2 |
| 20260504024534 | 5 | 299 | 0.0 | 0.0 | 0.00 | 0.00 | 0.00 | 57 | 1018.2 |
| 20260504024032 | 5 | 299 | 0.0 | 0.0 | 0.00 | 0.00 | 0.00 | 55 | 1018.2 |
| 20260504023538 | 5 | 299 | 0.0 | 0.0 | 0.00 | 0.00 | 0.00 | 54 | 1018.3 |
| 20260504023059 | 5 | 299 | 0.0 | 0.0 | 0.00 | 0.00 | 0.00 | 55 | 1018.3 |
| 20260504022559 | 5 | 299 | 0.0 | 0.0 | 0.00 | 0.00 | 0.00 | 54 | 1018.2 |
| 20260504022055 | 5 | 299 | 0.0 | 0.0 | 0.00 | 0.00 | 0.00 | 53 | 1018.1 |
| 20260504021508 | 6 | 299 | 0.0 | 0.0 | 0.00 | 0.00 | 0.00 | 52 | 1017.9 |
| 20260504021008 | 6 | 299 | 0.0 | 0.0 | 0.00 | 0.00 | 0.00 | 50 | 1017.9 |
| 20260504020634 | 6 | 299 | 0.0 | 0.0 | 0.00 | 0.00 | 0.00 | 51 | 1017.8 |
| 20260504020043 | 6 | 299 | 0.0 | 0.0 | 0.00 | 0.00 | 0.00 | 50 | 1017.9 |
| 20260504015535 | 6 | 299 | 0.0 | 0.0 | 0.00 | 0.00 | 0.00 | 50 | 1017.8 |
| 20260504015030 | 6 | 299 | 0.0 | 0.0 | 0.00 | 0.00 | 0.00 | 48 | 1017.7 |
| 20260504014605 | 6 | 299 | 0.0 | 0.0 | 0.00 | 0.00 | 0.00 | 49 | 1017.7 |
| 20260504014058 | 6 | 299 | 0.0 | 0.0 | 0.00 | 0.00 | 0.00 | 48 | 1017.8 |
| 20260504013600 | 7 | 360 | 0.0 | 0.0 | 0.00 | 0.00 | 0.00 | 48 | 1017.7 |
| 20260504013037 | 7 | 360 | 0.0 | 0.0 | 0.00 | 0.00 | 0.00 | 50 | 1017.6 |
| 20260504012518 | 7 | 360 | 0.0 | 4.8 | 0.00 | 0.00 | 0.00 | 48 | 1017.7 |
| 20260504012014 | 7 | 360 | 1.6 | 4.8 | 0.00 | 0.00 | 0.00 | 49 | 1017.6 |
| 20260504011555 | 7 | 360 | 0.0 | 1.6 | 0.00 | 0.00 | 0.00 | 48 | 1017.5 |
| 20260504011052 | 7 | 360 | 0.0 | 6.4 | 0.00 | 0.00 | 0.00 | 46 | 1017.5 |
| 20260504010542 | 7 | 360 | 3.2 | 6.4 | 0.00 | 0.00 | 0.00 | 46 | 1017.4 |
| 20260504010112 | 8 | 360 | 0.0 | 4.8 | 0.00 | 0.00 | 0.00 | 45 | 1017.3 |
| 20260504005603 | 8 | 360 | 1.6 | 4.8 | 0.00 | 0.00 | 0.00 | 43 | 1017.3 |
| 20260504005105 | 8 | 360 | 0.0 | 1.6 | 0.00 | 0.00 | 0.00 | 41 | 1017.3 |
| 20260504004509 | 8 | 360 | 0.0 | 1.6 | 0.00 | 0.00 | 0.00 | 41 | 1017.2 |
| 20260504004028 | 8 | 360 | 0.0 | 0.0 | 0.00 | 0.00 | 0.00 | 41 | 1017.0 |
| 20260504003506 | 9 | 360 | 0.0 | 0.0 | 0.00 | 0.00 | 0.00 | 41 | 1017.0 |
| 20260504003053 | 9 | 360 | 0.0 | 3.2 | 0.00 | 0.00 | 0.00 | 39 | 1017.0 |
| 20260504002546 | 9 | 360 | 0.0 | 3.2 | 0.00 | 0.00 | 0.00 | 41 | 1017.0 |
| 20260504002044 | 9 | 360 | 0.0 | 3.2 | 0.00 | 0.00 | 0.00 | 42 | 1017.0 |
| 20260504001606 | 10 | 360 | 0.0 | 3.2 | 0.00 | 0.00 | 0.00 | 39 | 1017.2 |
| 20260504001103 | 10 | 360 | 0.0 | 3.2 | 0.00 | 0.00 | 0.00 | 38 | 1017.1 |
| 20260504000021 | 10 | 360 | 0.0 | 1.6 | 0.00 | 0.00 | 0.00 | 41 | 1016.9 |
| 20260503235628 | 10 | 360 | 0.0 | 3.2 | 0.00 | 0.00 | 0.00 | 40 | 1017.0 |
| 20260503235002 | 10 | 360 | 0.0 | 3.2 | 0.00 | 0.00 | 0.00 | 40 | 1017.1 |
| 20260503234553 | 10 | 360 | 0.0 | 1.6 | 0.00 | 0.00 | 0.00 | 41 | 1017.1 |
| 20260503234054 | 10 | 360 | 0.0 | 4.8 | 0.00 | 0.00 | 0.00 | 40 | 1017.0 |
| 20260503233545 | 10 | 360 | 0.0 | 4.8 | 0.00 | 0.00 | 0.00 | 37 | 1016.9 |
| 20260503233146 | 11 | 360 | 0.0 | 3.2 | 0.00 | 0.00 | 0.00 | 38 | 1016.9 |
| 20260503232611 | 11 | 360 | 0.0 | 8.0 | 0.00 | 0.00 | 0.00 | 31 | 1016.9 |
| 20260503232104 | 11 | 360 | 1.6 | 8.0 | 0.00 | 0.00 | 0.00 | 33 | 1017.0 |
| 20260503231508 | 11 | 360 | 1.6 | 9.7 | 0.00 | 0.00 | 0.00 | 33 | 1016.9 |
| 20260503231002 | 11 | 360 | 3.2 | 8.0 | 0.00 | 0.00 | 0.00 | 33 | 1016.8 |
| 20260503230502 | 12 | 360 | 0.0 | 4.8 | 0.00 | 0.00 | 0.00 | 28 | 1017.0 |
| 20260503230042 | 12 | 360 | 1.6 | 4.8 | 0.00 | 0.00 | 0.00 | 31 | 1017.0 |
| 20260503225534 | 12 | 360 | 1.6 | 6.4 | 0.00 | 0.00 | 0.00 | 31 | 1017.1 |
| 20260503225037 | 12 | 360 | 3.2 | 6.4 | 0.00 | 0.00 | 0.00 | 29 | 1017.1 |
| 20260503224602 | 12 | 50 | 0.0 | 4.8 | 0.00 | 0.00 | 0.00 | 30 | 1017.1 |
| 20260503224057 | 12 | 49 | 1.6 | 4.8 | 0.00 | 0.00 | 0.00 | 28 | 1017.0 |
| 20260503223547 | 12 | 360 | 0.0 | 8.0 | 0.00 | 0.00 | 0.00 | 28 | 1017.1 |
| 20260503223002 | 12 | 360 | 0.0 | 8.0 | 0.00 | 0.00 | 0.00 | 26 | 1017.2 |
| 20260503222612 | 12 | 360 | 1.6 | 6.4 | 0.00 | 0.00 | 0.00 | 27 | 1017.1 |
| 20260503222002 | 12 | 360 | 0.0 | 8.0 | 0.00 | 0.00 | 0.00 | 29 | 1017.1 |
| 20260503221553 | 12 | 360 | 1.6 | 16.1 | 0.00 | 0.00 | 0.00 | 28 | 1017.0 |
| 20260503221042 | 12 | 340 | 4.8 | 16.1 | 0.00 | 0.00 | 0.00 | 28 | 1017.1 |
| 20260503220544 | 12 | 360 | 1.6 | 9.7 | 0.00 | 0.00 | 0.00 | 25 | 1017.2 |
| 20260503220034 | 12 | 360 | 1.6 | 9.7 | 0.00 | 0.00 | 0.00 | 26 | 1017.3 |
| 20260503215533 | 12 | 360 | 4.8 | 9.7 | 0.00 | 0.00 | 0.00 | 23 | 1017.4 |
| 20260503215035 | 13 | 360 | 1.6 | 8.0 | 0.00 | 0.00 | 0.00 | 24 | 1017.5 |
| 20260503214558 | 12 | 360 | 3.2 | 14.5 | 0.00 | 0.00 | 0.00 | 25 | 1017.5 |
| 20260503214056 | 12 | 360 | 0.0 | 14.5 | 0.00 | 0.00 | 0.00 | 23 | 1017.3 |
| 20260503213554 | 13 | 360 | 4.8 | 17.7 | 0.00 | 0.00 | 0.00 | 21 | 1017.4 |
| 20260503213002 | 13 | 360 | 1.6 | 9.7 | 0.00 | 0.00 | 0.00 | 23 | 1017.4 |
| 20260503212608 | 12 | 360 | 1.6 | 9.7 | 0.00 | 0.00 | 0.00 | 27 | 1017.4 |
| 20260503212107 | 12 | 360 | 3.2 | 8.0 | 0.00 | 0.00 | 0.00 | 23 | 1017.6 |
| 20260503211547 | 13 | 360 | 3.2 | 12.9 | 0.00 | 0.00 | 0.00 | 22 | 1017.6 |
| 20260503211039 | 12 | 360 | 3.2 | 16.1 | 0.00 | 0.00 | 0.00 | 24 | 1017.5 |
| 20260503210545 | 13 | 360 | 3.2 | 14.5 | 0.00 | 0.00 | 0.00 | 20 | 1017.8 |
| 20260503210106 | 12 | 360 | 6.4 | 12.9 | 0.00 | 0.00 | 0.00 | 22 | 1017.7 |
| 20260503205606 | 13 | 360 | 3.2 | 6.4 | 0.00 | 0.00 | 0.00 | 26 | 1017.6 |
| 20260503205103 | 13 | 360 | 3.2 | 8.0 | 0.00 | 0.00 | 0.00 | 23 | 1017.8 |
| 20260503204506 | 13 | 360 | 3.2 | 12.9 | 0.00 | 0.00 | 0.00 | 26 | 1017.6 |
| 20260503204002 | 12 | 360 | 3.2 | 12.9 | 0.00 | 0.00 | 0.00 | 26 | 1017.7 |
| 20260503203629 | 13 | 360 | 4.8 | 12.9 | 0.00 | 0.00 | 0.00 | 33 | 1017.9 |
| 20260503203100 | 13 | 360 | 4.8 | 12.9 | 0.00 | 0.00 | 0.00 | 34 | 1017.8 |
| 20260503202546 | 12 | 360 | 3.2 | 8.0 | 0.00 | 0.00 | 0.00 | 29 | 1018.0 |
| 20260503202042 | 12 | 360 | 1.6 | 20.9 | 0.00 | 0.00 | 0.00 | 29 | 1018.0 |
| 20260503201604 | 13 | 360 | 6.4 | 20.9 | 0.00 | 0.00 | 0.00 | 26 | 1018.1 |
| 20260503201108 | 12 | 360 | 3.2 | 9.7 | 0.00 | 0.00 | 0.00 | 27 | 1018.1 |
| 20260503200503 | 12 | 360 | 0.0 | 12.9 | 0.00 | 0.00 | 0.00 | 33 | 1018.2 |
| 20260503200044 | 12 | 360 | 4.8 | 12.9 | 0.00 | 0.00 | 0.00 | 27 | 1018.1 |
| 20260503195546 | 12 | 360 | 3.2 | 12.9 | 0.00 | 0.00 | 0.00 | 33 | 1018.3 |
| 20260503195035 | 12 | 360 | 3.2 | 16.1 | 0.00 | 0.00 | 0.00 | 34 | 1018.4 |
| 20260503194604 | 12 | 360 | 4.8 | 19.3 | 0.00 | 0.00 | 0.00 | 34 | 1018.5 |
| 20260503194102 | 13 | 360 | 4.8 | 19.3 | 0.00 | 0.00 | 0.00 | 34 | 1018.5 |
| 20260503193602 | 12 | 360 | 1.6 | 14.5 | 0.00 | 0.00 | 0.00 | 34 | 1018.4 |
| 20260503193026 | 12 | 267 | 4.8 | 14.5 | 0.00 | 0.00 | 0.00 | 38 | 1018.5 |
| 20260503192503 | 12 | 360 | 3.2 | 8.0 | 0.00 | 0.00 | 0.00 | 37 | 1018.4 |
| 20260503192007 | 12 | 360 | 3.2 | 8.0 | 0.00 | 0.00 | 0.00 | 40 | 1018.5 |
| 20260503191555 | 13 | 267 | 4.8 | 9.7 | 0.00 | 0.00 | 0.00 | 36 | 1018.5 |
| 20260503191057 | 12 | 268 | 4.8 | 9.7 | 0.00 | 0.00 | 0.00 | 39 | 1018.5 |
| 20260503190557 | 13 | 360 | 4.8 | 9.7 | 0.00 | 0.00 | 0.00 | 37 | 1018.7 |
| 20260503190039 | 13 | 313 | 4.8 | 16.1 | 0.00 | 0.00 | 0.00 | 45 | 1018.6 |
| 20260503185630 | 13 | 360 | 3.2 | 16.1 | 0.00 | 0.00 | 0.00 | 37 | 1018.7 |
| 20260503185041 | 13 | 360 | 1.6 | 8.0 | 0.00 | 0.00 | 0.00 | 41 | 1018.6 |
| 20260503184612 | 12 | 360 | 1.6 | 14.5 | 0.00 | 0.00 | 0.00 | 40 | 1018.6 |
| 20260503184110 | 13 | 360 | 3.2 | 14.5 | 0.00 | 0.00 | 0.00 | 40 | 1018.6 |
| 20260503183607 | 13 | 360 | 3.2 | 8.0 | 0.00 | 0.00 | 0.00 | 43 | 1018.7 |
| 20260503183035 | 13 | 360 | 1.6 | 14.5 | 0.00 | 0.00 | 0.00 | 40 | 1018.6 |
| 20260503182513 | 13 | 360 | 4.8 | 14.5 | 0.00 | 0.00 | 0.00 | 47 | 1018.6 |
| 20260503182011 | 13 | 360 | 6.4 | 16.1 | 0.00 | 0.00 | 0.00 | 39 | 1018.9 |
| 20260503181602 | 12 | 360 | 3.2 | 16.1 | 0.00 | 0.00 | 0.00 | 41 | 1018.8 |
| 20260503181049 | 12 | 360 | 4.8 | 12.9 | 0.00 | 0.00 | 0.00 | 38 | 1018.9 |
| 20260503180552 | 13 | 360 | 3.2 | 14.5 | 0.00 | 0.00 | 0.00 | 39 | 1018.9 |
| 20260503180004 | 13 | 360 | 3.2 | 14.5 | 0.00 | 0.00 | 0.00 | 41 | 1019.0 |
| 20260503175605 | 13 | 360 | 4.8 | 9.7 | 0.00 | 0.00 | 0.00 | 44 | 1018.9 |
| 20260503175104 | 12 | 360 | 4.8 | 11.3 | 0.00 | 0.00 | 0.00 | 39 | 1018.9 |
| 20260503174535 | 12 | 186 | 1.6 | 9.7 | 0.00 | 0.00 | 0.00 | 44 | 1019.0 |
| 20260503174007 | 13 | 360 | 0.0 | 11.3 | 0.00 | 0.00 | 0.00 | 43 | 1019.0 |
| 20260503173506 | 13 | 360 | 1.6 | 8.0 | 0.00 | 0.00 | 0.00 | 41 | 1019.2 |
| 20260503173055 | 12 | 336 | 1.6 | 9.7 | 0.00 | 0.00 | 0.00 | 46 | 1019.0 |
| 20260503172549 | 12 | 159 | 3.2 | 9.7 | 0.00 | 0.00 | 0.00 | 40 | 1019.2 |
| 20260503172043 | 12 | 253 | 3.2 | 16.1 | 0.00 | 0.00 | 0.00 | 39 | 1019.2 |
| 20260503171643 | 12 | 17 | 3.2 | 16.1 | 0.00 | 0.00 | 0.00 | 46 | 1019.3 |
| 20260503171130 | 12 | 360 | 3.2 | 9.7 | 0.00 | 0.00 | 0.00 | 43 | 1019.3 |
| 20260503170557 | 12 | 360 | 1.6 | 17.7 | 0.00 | 0.00 | 0.00 | 43 | 1019.2 |
| 20260503150548 | 7 | 238 | 4.8 | 8.0 | 0.00 | 0.00 | 0.00 | 40 | 1019.9 |
| 20260503131029 | 3 | 360 | 0.0 | 0.0 | 0.00 | 0.00 | 0.00 | 62 | 1019.3 |
| 20260503130514 | 3 | 154 | 0.0 | 0.0 | 0.00 | 0.00 | 0.00 | 63 | 1019.3 |
| 20260503110536 | 1 | 360 | 0.0 | 0.0 | 0.00 | 0.00 | 0.00 | 69 | 1017.5 |
| 20260503081518 | 1 | 360 | 0.0 | 0.0 | 0.00 | 0.00 | 0.00 | 66 | 1016.2 |
| 20260503081028 | 1 | 155 | 0.0 | 0.0 | 0.00 | 0.00 | 0.00 | 66 | 1016.1 |
| 20260503080530 | 1 | 155 | 0.0 | 0.0 | 0.00 | 0.00 | 0.00 | 65 | 1015.9 |
| 20260503072513 | 1 | 360 | 0.0 | 0.0 | 0.00 | 0.00 | 0.00 | 64 | 1015.6 |
| 20260503072012 | 1 | 360 | 0.0 | 0.0 | 0.00 | 0.00 | 0.00 | 64 | 1015.5 |
| 20260503071604 | 1 | 360 | 0.0 | 0.0 | 0.00 | 0.00 | 0.00 | 64 | 1015.4 |
| 20260503071054 | 2 | 156 | 0.0 | 0.0 | 0.00 | 0.00 | 0.00 | 64 | 1015.3 |
| 20260503070553 | 2 | 155 | 0.0 | 0.0 | 0.00 | 0.00 | 0.00 | 64 | 1015.3 |
| 20260503060108 | 3 | 156 | 0.0 | 0.0 | 0.00 | 0.00 | 0.00 | 61 | 1015.5 |
| 20260503055055 | 3 | 155 | 0.0 | 0.0 | 0.00 | 0.00 | 0.00 | 61 | 1015.3 |
| 20260503054508 | 3 | 155 | 0.0 | 0.0 | 0.00 | 0.00 | 0.00 | 61 | 1015.4 |
| 20260503054132 | 3 | 360 | 0.0 | 3.2 | 0.00 | 0.00 | 0.00 | 61 | 1015.3 |
| 20260503053606 | 3 | 156 | 0.0 | 3.2 | 0.00 | 0.00 | 0.00 | 61 | 1015.5 |
| 20260503053043 | 3 | 360 | 0.0 | 3.2 | 0.00 | 0.00 | 0.00 | 60 | 1015.6 |
| 20260503052543 | 3 | 360 | 0.0 | 6.4 | 0.00 | 0.00 | 0.00 | 60 | 1015.4 |
| 20260503052038 | 3 | 360 | 0.0 | 6.4 | 0.00 | 0.00 | 0.00 | 60 | 1015.4 |
| 20260503051605 | 3 | 360 | 0.0 | 4.8 | 0.00 | 0.00 | 0.00 | 61 | 1015.4 |
| 20260503051122 | 3 | 360 | 0.0 | 4.8 | 0.00 | 0.00 | 0.00 | 61 | 1015.4 |
| 20260503050600 | 3 | 360 | 1.6 | 4.8 | 0.00 | 0.00 | 0.00 | 62 | 1015.6 |
| 20260503050005 | 3 | 360 | 0.0 | 4.8 | 0.00 | 0.00 | 0.00 | 63 | 1015.6 |
| 20260503045610 | 3 | 360 | 0.0 | 4.8 | 0.00 | 0.00 | 0.00 | 64 | 1015.6 |
| 20260503045104 | 2 | 360 | 0.0 | 3.2 | 0.00 | 0.00 | 0.00 | 65 | 1015.5 |
| 20260503044508 | 2 | 360 | 0.0 | 0.0 | 0.00 | 0.00 | 0.00 | 67 | 1015.4 |
| 20260503044134 | 2 | 360 | 0.0 | 0.0 | 0.00 | 0.00 | 0.00 | 67 | 1015.5 |
| 20260503043506 | 2 | 360 | 0.0 | 3.2 | 0.00 | 0.00 | 0.00 | 67 | 1015.3 |
| 20260503043056 | 2 | 360 | 0.0 | 3.2 | 0.00 | 0.00 | 0.00 | 67 | 1015.3 |
| 20260503042546 | 2 | 360 | 0.0 | 0.0 | 0.00 | 0.00 | 0.00 | 66 | 1015.2 |
| 20260503042046 | 2 | 360 | 0.0 | 0.0 | 0.00 | 0.00 | 0.00 | 66 | 1015.4 |
| 20260503041644 | 2 | 360 | 0.0 | 0.0 | 0.00 | 0.00 | 0.00 | 65 | 1015.2 |
| 20260503041108 | 2 | 360 | 0.0 | 0.0 | 0.00 | 0.00 | 0.00 | 65 | 1015.3 |
| 20260503040600 | 2 | 360 | 0.0 | 0.0 | 0.00 | 0.00 | 0.00 | 65 | 1015.2 |
| 20260503040011 | 2 | 360 | 0.0 | 0.0 | 0.00 | 0.00 | 0.00 | 65 | 1015.1 |